Weather in Fastiv

Ukraine / Kyiv Region     50˚04′43″N   29˚54′53″E
temp.,
°C
wind,
m/s
gust,
m/s
humid.,
%
clouds,
%
prec.,
mm/h
press.,
hPa
HPBL,
m
27 november, fri
fri2723:00+1˚sw48779 0.0 1021191
02:00sw48774 0.0 1021203
05:00−1˚wsw49820 0.0 1020243
08:00wsw498235 0.0 1019239
11:00+3˚wsw587196 0.0 1019313
14:00+4˚w597197 0.0 1018495
17:00+3˚w3881100 0.0 1018431
20:00+3˚w4986100 0.0 1018418
28 november, sat
sat2823:00+2˚w4696100 0.3 1019363
02:00+3˚wsw3693100 0.4 1019357
05:00+3˚wsw2588100 0.1 1018161
08:00+3˚ssw2380100 0.1 101975
11:00+4˚sw3474100 0.1 1019662
14:00+4˚wsw2361100 0.2 1018889
17:00+2˚ssw1169100 0.0 101922
20:00+2˚e0176100 0.0 101922
29 november, sun
sun2923:00+1˚e1180100 0.0 101922
02:00+1˚ese1284100 0.0 101931
05:00+1˚ssw0098100 0.3 101854
08:00+1˚nnw1297100 0.7 1018118
11:00+1˚wnw1296100 0.6 101883
14:00+1˚w3497100 1.3 1019185
17:00+1˚wsw2396100 0.3 1019231
20:00+1˚w3587100 0.4 1021517
30 november, mon
mon3023:00−2˚w358467 0.0 1022124
02:00−3˚wsw228433 0.0 102355
05:00−3˚sw22830 0.0 102337
08:00−3˚w22860 0.0 102534
11:00nw22760 0.0 1026376
14:00+1˚nnw237229 0.0 1026567
17:00−1˚nnw2484100 0.0 102787
20:00−1˚nnw3587100 0.0 1028223
1 december, tue
tue123:00−1˚n3588100 0.0 1028276
02:00−1˚n3687100 0.0 1028319
05:00−1˚n4787100 0.1 1028354
08:00−2˚n4891100 0.3 1028393
11:00−1˚n4693100 0.8 1027401
14:00n4795100 1.5 1026411
17:00−1˚n3697100 1.0 1025300
20:00n249999 2.1 1025142